Home   Weather   San Bernardino   Past weeks

Flag for USA Past Weather in San Bernardino, California, USA — Yesterday and Last 2 Weeks

Now
51 °F

Mostly cloudy.


Feels Like: 51 °F
Forecast: 46 / 53 °F
Wind: No wind

Location: Riverside Municipal Airport

Current Time: Jan 21, 2017 at 10:17:44 pm

Latest Report: Jan 21, 2017 at 8:53 pm


Visibility: 10 mi

Pressure: 30.08 "Hg

Humidity: 86%

Dew Point: 47 °F

Location of San BernardinoLocation

Past Weather in San Bernardino — Graph

°F

San Bernardino Temperature Yesterday

Maximum temperature yesterday: 54 °F (at 3:53 pm)
Minimum temperature yesterday: 49 °F (at 12:53 am)
Average temperature yesterday: 50 °F

High & Low Weather Summary for the Past Weeks

 TemperatureHumidityPressure
High75 °F (Jan 8, 2:53 pm)100% (Jan 9, 6:18 am)30.21 "Hg (Jan 9, 6:18 am)
Low34 °F (Jan 17, 5:53 am)19% (Jan 17, 12:53 pm)29.41 "Hg (Jan 20, 3:53 pm)
Average53 °F79%30.01 "Hg
* Reported Jan 6 8:53 pm — Jan 21 8:53 pm, San Bernardino, Weather by CustomWeather, © 2017

Note: Actual official high and low records may vary slightly from our data, if they occured in-between our weather recording intervals... More about our weather records

Advertising

San Bernardino Weather History for the Previous 24 Hours

Scroll right to see more
 ConditionsComfort  
Time TempWeatherWind HumidityBarometerVisibility
8:53 pm
Sat, Jan 21
51 °FMostly cloudy.No wind86%30.08 "Hg10 mi
7:53 pm51 °FPassing clouds.5 mph83%30.06 "Hg10 mi
6:53 pm51 °FPassing clouds.3 mph80%30.02 "Hg10 mi
5:53 pm52 °FPassing clouds.3 mph77%29.99 "Hg10 mi
4:53 pm54 °FPartly sunny.3 mph67%29.97 "Hg10 mi
3:53 pm56 °FPartly sunny.No wind58%29.96 "Hg10 mi
2:53 pm57 °FPartly sunny.6 mph55%29.94 "Hg10 mi
1:53 pm56 °FScattered clouds.No wind58%29.93 "Hg10 mi
12:53 pm55 °FBroken clouds.No wind59%29.91 "Hg10 mi
12:00 pm55 °FMostly cloudy.5 mph62%29.95 "Hg10 mi
11:53 am55 °FPartly sunny.9 mph62%29.91 "Hg10 mi
10:53 am53 °FPartly sunny.3 mph69%29.90 "Hg10 mi
9:53 am50 °FPartly sunny.No wind77%29.89 "Hg10 mi
8:53 am49 °FScattered clouds.3 mph77%29.85 "Hg10 mi
7:53 am46 °FScattered clouds.No wind86%29.80 "Hg10 mi
6:53 am46 °FPassing clouds.6 mph83%29.75 "Hg10 mi
5:53 am45 °FClear.14 mph90%29.71 "Hg10 mi
4:53 am46 °FClear.13 mph89%29.67 "Hg10 mi
3:53 am46 °FClear.12 mph86%29.65 "Hg10 mi
3:28 am47 °FPassing clouds.10 mph86%29.66 "Hg10 mi
3:07 am47 °FPassing clouds.12 mph86%29.66 "Hg10 mi
2:53 am47 °FPartly cloudy.10 mph86%29.62 "Hg10 mi
1:53 am48 °FPassing clouds.16 mph80%29.60 "Hg10 mi
12:53 am48 °FPassing clouds.16 mph80%29.57 "Hg10 mi
12:38 am49 °FOvercast.14 mph80%29.60 "Hg10 mi
11:53 pm
Fri, Jan 20
49 °FPartly cloudy.12 mph86%29.55 "Hg10 mi
10:53 pm50 °FPartly cloudy.17 mph83%29.54 "Hg10 mi
Weather by CustomWeather, © 2017

See weather overviewHow to use our weather pages